| time (UTC) | temp F | wind direction | speed MPH | gust MPH | rain 1hr in | rain 24hr in | rain mn in | humidity % | barometer mb |
| 20260905010016 | 81 | 230 | 11.0 | 18.0 | 0.00 | 0.00 | 0.00 | 35 | 850.2 |
| 20260905004514 | 81 | 178 | 11.0 | 18.0 | 0.00 | 0.00 | 0.00 | 36 | 850.4 |
| 20260905003016 | 81 | 146 | 10.0 | 18.0 | 0.00 | 0.00 | 0.00 | 37 | 850.5 |
| 20260905001534 | 81 | 173 | 11.0 | 17.0 | 0.00 | 0.00 | 0.00 | 37 | 850.5 |
| 20260905000013 | 81 | 185 | 14.0 | 23.0 | 0.00 | 0.00 | 0.00 | 37 | 850.5 |
| 20260904234521 | 81 | 189 | 13.0 | 21.0 | 0.00 | 0.00 | 0.00 | 37 | 850.5 |
| 20260904233014 | 83 | 230 | 10.0 | 24.0 | 0.00 | 0.00 | 0.00 | 34 | 850.4 |
| 20260904231513 | 83 | 212 | 10.0 | 20.0 | 0.00 | 0.00 | 0.00 | 33 | 850.4 |
| 20260904230015 | 84 | 217 | 12.0 | 18.0 | 0.00 | 0.00 | 0.00 | 32 | 850.4 |
| 20260904224514 | 83 | 222 | 10.0 | 24.0 | 0.00 | 0.00 | 0.00 | 33 | 850.4 |
| 20260904223014 | 84 | 171 | 12.0 | 24.0 | 0.00 | 0.00 | 0.00 | 33 | 850.5 |
| 20260904221534 | 84 | 184 | 10.0 | 22.0 | 0.00 | 0.00 | 0.00 | 28 | 850.5 |
| 20260904220016 | 84 | 163 | 12.0 | 25.0 | 0.00 | 0.00 | 0.00 | 32 | 850.6 |
| 20260904214516 | 84 | 166 | 9.0 | 23.0 | 0.00 | 0.00 | 0.00 | 31 | 850.6 |
| 20260904213014 | 84 | 168 | 11.0 | 23.0 | 0.00 | 0.00 | 0.00 | 33 | 850.8 |
| 20260904211516 | 84 | 209 | 12.0 | 20.0 | 0.00 | 0.00 | 0.00 | 33 | 850.7 |
| 20260904210017 | 84 | 177 | 15.0 | 29.0 | 0.00 | 0.00 | 0.00 | 33 | 850.9 |
| 20260904204519 | 84 | 176 | 13.0 | 22.0 | 0.00 | 0.00 | 0.00 | 30 | 850.9 |
| 20260904203015 | 83 | 192 | 11.0 | 26.0 | 0.00 | 0.00 | 0.00 | 32 | 851.2 |
| 20260904201528 | 83 | 192 | 14.0 | 23.0 | 0.00 | 0.00 | 0.00 | 31 | 851.3 |
| 20260904200037 | 84 | 201 | 11.0 | 20.0 | 0.00 | 0.00 | 0.00 | 35 | 851.4 |
| 20260904194518 | 83 | 168 | 17.0 | 25.0 | 0.00 | 0.00 | 0.00 | 32 | 851.5 |
| 20260904193019 | 84 | 193 | 13.0 | 23.0 | 0.00 | 0.00 | 0.00 | 34 | 851.6 |
| 20260904191516 | 83 | 187 | 12.0 | 22.0 | 0.00 | 0.00 | 0.00 | 32 | 851.7 |
| 20260904190015 | 83 | 193 | 11.0 | 22.0 | 0.00 | 0.00 | 0.00 | 35 | 851.9 |
| 20260904184517 | 81 | 175 | 10.0 | 21.0 | 0.00 | 0.00 | 0.00 | 38 | 852.0 |
| 20260904183015 | 80 | 175 | 7.0 | 18.0 | 0.00 | 0.00 | 0.00 | 42 | 852.0 |
| 20260904181515 | 79 | 154 | 11.0 | 19.0 | 0.00 | 0.00 | 0.00 | 50 | 852.1 |
| 20260904180017 | 77 | 132 | 6.0 | 21.0 | 0.00 | 0.00 | 0.00 | 50 | 852.2 |
| 20260904174516 | 78 | 159 | 11.0 | 20.0 | 0.00 | 0.00 | 0.00 | 54 | 852.2 |
| 20260904173016 | 77 | 122 | 11.0 | 19.0 | 0.00 | 0.00 | 0.00 | 56 | 852.1 |
| 20260904171540 | 78 | 113 | 12.0 | 21.0 | 0.00 | 0.00 | 0.00 | 55 | 852.1 |
| 20260904170014 | 78 | 144 | 13.0 | 20.0 | 0.00 | 0.00 | 0.00 | 55 | 852.1 |
| 20260904164518 | 77 | 121 | 14.0 | 20.0 | 0.00 | 0.00 | 0.00 | 58 | 852.1 |
| 20260904163037 | 76 | 144 | 12.0 | 18.0 | 0.00 | 0.00 | 0.00 | 59 | 851.9 |
| 20260904161517 | 75 | 131 | 13.0 | 18.0 | 0.00 | 0.00 | 0.00 | 62 | 851.9 |
| 20260904160017 | 74 | 137 | 12.0 | 20.0 | 0.00 | 0.00 | 0.00 | 63 | 851.9 |
| 20260904154520 | 73 | 128 | 12.0 | 18.0 | 0.00 | 0.00 | 0.00 | 63 | 851.9 |
| 20260904153025 | 72 | 122 | 11.0 | 19.0 | 0.00 | 0.00 | 0.00 | 65 | 851.8 |
| 20260904151532 | 71 | 132 | 10.0 | 17.0 | 0.00 | 0.00 | 0.00 | 65 | 851.7 |
| 20260904150021 | 71 | 120 | 10.0 | 15.0 | 0.00 | 0.00 | 0.00 | 65 | 851.6 |
| 20260904144518 | 69 | 119 | 11.0 | 15.0 | 0.00 | 0.00 | 0.00 | 67 | 851.7 |
| 20260904143017 | 67 | 134 | 9.0 | 13.0 | 0.00 | 0.00 | 0.00 | 72 | 851.5 |
| 20260904141516 | 65 | 137 | 6.0 | 10.0 | 0.00 | 0.00 | 0.00 | 77 | 851.4 |
| 20260904140017 | 63 | 132 | 5.0 | 8.0 | 0.00 | 0.00 | 0.00 | 79 | 851.3 |
| 20260904134523 | 62 | 134 | 5.0 | 9.0 | 0.00 | 0.00 | 0.00 | 80 | 851.1 |
| 20260904133022 | 61 | 135 | 6.0 | 9.0 | 0.00 | 0.00 | 0.00 | 82 | 851.0 |
| 20260904131519 | 60 | 132 | 4.0 | 5.0 | 0.00 | 0.00 | 0.00 | 81 | 851.2 |
| 20260904130008 | 61 | 131 | 3.0 | 4.0 | 0.00 | 0.00 | 0.00 | 79 | 850.7 |
| 20260904124508 | 61 | 121 | 3.0 | 10.0 | 0.00 | 0.00 | 0.00 | 79 | 850.5 |
| 20260904123008 | 61 | 119 | 4.0 | 8.0 | 0.00 | 0.00 | 0.00 | 80 | 850.4 |
| 20260904121508 | 61 | 128 | 3.0 | 7.0 | 0.00 | 0.00 | 0.00 | 81 | 850.3 |
| 20260904120015 | 61 | 146 | 2.0 | 7.0 | 0.00 | 0.00 | 0.00 | 82 | 850.4 |
| 20260904114508 | 60 | 133 | 2.0 | 4.0 | 0.00 | 0.00 | 0.00 | 83 | 850.3 |
| 20260904113008 | 60 | 136 | 2.0 | 4.0 | 0.00 | 0.00 | 0.00 | 82 | 850.4 |
| 20260904111513 | 60 | 103 | 0.0 | 1.0 | 0.00 | 0.00 | 0.00 | 82 | 850.3 |
| 20260904110012 | 60 | 103 | 0.0 | 2.0 | 0.00 | 0.00 | 0.00 | 81 | 850.2 |
| 20260904104511 | 61 | 117 | 1.0 | 3.0 | 0.00 | 0.00 | 0.00 | 80 | 850.1 |
| 20260904103014 | 61 | 146 | 1.0 | 7.0 | 0.00 | 0.00 | 0.00 | 79 | 850.0 |
| 20260904101521 | 62 | 129 | 2.0 | 5.0 | 0.00 | 0.00 | 0.00 | 77 | 849.9 |
| 20260904100016 | 62 | 159 | 3.0 | 7.0 | 0.00 | 0.00 | 0.00 | 80 | 849.8 |
| 20260904094516 | 62 | 158 | 1.0 | 6.0 | 0.00 | 0.00 | 0.00 | 80 | 849.8 |
| 20260904093016 | 62 | 151 | 2.0 | 4.0 | 0.00 | 0.00 | 0.00 | 77 | 849.8 |
| 20260904091519 | 64 | 144 | 2.0 | 6.0 | 0.00 | 0.00 | 0.00 | 75 | 849.8 |
| 20260904090022 | 65 | 103 | 2.0 | 5.0 | 0.00 | 0.00 | 0.00 | 73 | 849.9 |
| 20260904084521 | 64 | 194 | 5.0 | 10.0 | 0.00 | 0.00 | 0.00 | 75 | 849.9 |
| 20260904083020 | 65 | 151 | 1.0 | 4.0 | 0.00 | 0.00 | 0.00 | 74 | 849.9 |
| 20260904081519 | 66 | 109 | 3.0 | 8.0 | 0.00 | 0.00 | 0.00 | 70 | 850.0 |
| 20260904080019 | 68 | 172 | 1.0 | 9.0 | 0.00 | 0.00 | 0.00 | 67 | 850.0 |
| 20260904074522 | 69 | 197 | 6.0 | 10.0 | 0.00 | 0.00 | 0.00 | 66 | 850.0 |
| 20260904073018 | 69 | 201 | 5.0 | 8.0 | 0.00 | 0.00 | 0.00 | 66 | 850.0 |
| 20260904071520 | 69 | 175 | 6.0 | 8.0 | 0.00 | 0.00 | 0.00 | 66 | 850.0 |
| 20260904070019 | 69 | 185 | 6.0 | 9.0 | 0.00 | 0.00 | 0.00 | 67 | 850.0 |
| 20260904064519 | 68 | 191 | 3.0 | 6.0 | 0.00 | 0.00 | 0.00 | 68 | 850.0 |
| 20260904063021 | 67 | 153 | 4.0 | 7.0 | 0.00 | 0.00 | 0.00 | 69 | 850.0 |
| 20260904061519 | 67 | 173 | 2.0 | 6.0 | 0.00 | 0.00 | 0.00 | 68 | 849.9 |
| 20260904060018 | 67 | 126 | 4.0 | 7.0 | 0.00 | 0.00 | 0.00 | 67 | 849.9 |
| 20260904054531 | 69 | 164 | 1.0 | 6.0 | 0.00 | 0.00 | 0.00 | 64 | 849.8 |
| 20260904053026 | 70 | 161 | 3.0 | 6.0 | 0.00 | 0.00 | 0.00 | 62 | 849.9 |
| 20260904051520 | 70 | 165 | 4.0 | 9.0 | 0.00 | 0.00 | 0.00 | 62 | 849.8 |
| 20260904050019 | 68 | 178 | 5.0 | 8.0 | 0.00 | 0.00 | 0.00 | 63 | 849.9 |
| 20260904044527 | 67 | 159 | 3.0 | 5.0 | 0.00 | 0.00 | 0.00 | 66 | 850.0 |
| 20260904043024 | 66 | 167 | 3.0 | 5.0 | 0.00 | 0.00 | 0.00 | 67 | 849.9 |
| 20260904041522 | 66 | 151 | 2.0 | 5.0 | 0.00 | 0.00 | 0.00 | 66 | 849.8 |
| 20260904040018 | 67 | 163 | 3.0 | 5.0 | 0.00 | 0.00 | 0.00 | 65 | 849.7 |
| 20260904034520 | 67 | 158 | 3.0 | 5.0 | 0.00 | 0.00 | 0.00 | 63 | 849.7 |
| 20260904033029 | 68 | 148 | 3.0 | 5.0 | 0.00 | 0.00 | 0.00 | 62 | 849.7 |
| 20260904031520 | 70 | 146 | 2.0 | 5.0 | 0.00 | 0.00 | 0.00 | 59 | 849.5 |
| 20260904030045 | 71 | 146 | 2.0 | 3.0 | 0.00 | 0.00 | 0.00 | 55 | 849.3 |
| 20260904024518 | 73 | 161 | 2.0 | 6.0 | 0.00 | 0.00 | 0.00 | 52 | 849.2 |
| 20260904023030 | 74 | 175 | 5.0 | 9.0 | 0.00 | 0.00 | 0.00 | 49 | 849.1 |
| 20260904021528 | 75 | 191 | 5.0 | 7.0 | 0.00 | 0.00 | 0.00 | 47 | 849.0 |
| 20260904020018 | 77 | 175 | 4.0 | 11.0 | 0.00 | 0.00 | 0.00 | 45 | 849.0 |
| 20260904014521 | 78 | 176 | 6.0 | 12.0 | 0.00 | 0.00 | 0.00 | 43 | 849.0 |
| 20260904013021 | 79 | 166 | 8.0 | 13.0 | 0.00 | 0.00 | 0.00 | 42 | 848.9 |
| 20260904011522 | 79 | 171 | 7.0 | 12.0 | 0.00 | 0.00 | 0.00 | 40 | 848.9 |